�������l�o���
Date,Time,MP-1(��Sv/h),MP-2(��Sv/h),MP-3(��Sv/h),MP-4(��Sv/h),MP-5(��Sv/h),MP-6(��Sv/h),MP-7(��Sv/h),����,����(m/s),���J
2020/04/27,00:00,0.174,0.162,0.268,0.242,0.257,0.138,0.085,�k��,4.5,��
2020/04/27,00:10,0.175,0.160,0.268,0.242,0.256,0.139,0.085,�k��,5.2,�L
2020/04/27,00:20,0.177,0.161,0.267,0.244,0.257,0.140,0.086,�k��,5.6,�L
2020/04/27,00:30,0.179,0.165,0.269,0.245,0.258,0.143,0.088,�k��,6.0,�L
2020/04/27,00:40,0.180,0.165,0.270,0.244,0.258,0.143,0.089,�k��,5.7,�L
2020/04/27,00:50,0.179,0.164,0.269,0.245,0.259,0.142,0.088,�k�k��,3.9,�L
2020/04/27,01:00,0.178,0.164,0.267,0.245,0.258,0.141,0.087,�k,2.4,�L
2020/04/27,01:10,0.180,0.163,0.268,0.244,0.259,0.143,0.089,�k��,5.1,�L
2020/04/27,01:20,0.180,0.166,0.272,0.246,0.261,0.145,0.091,�k�k��,4.1,�L
2020/04/27,01:30,0.180,0.165,0.269,0.247,0.261,0.146,0.092,�k,3.1,��
2020/04/27,01:40,0.179,0.164,0.270,0.245,0.262,0.144,0.091,�k�k��,4.1,��
2020/04/27,01:50,0.178,0.164,0.269,0.245,0.259,0.142,0.089,�k�k��,4.5,��
2020/04/27,02:00,0.176,0.163,0.266,0.244,0.258,0.142,0.089,�k�k��,4.3,��
2020/04/27,02:10,0.177,0.162,0.266,0.242,0.259,0.141,0.088,�k��,5.3,��
2020/04/27,02:20,0.175,0.161,0.265,0.242,0.257,0.140,0.087,�k��,5.2,��
2020/04/27,02:30,0.176,0.160,0.264,0.241,0.256,0.139,0.086,�k�k��,2.5,��
2020/04/27,02:40,0.174,0.160,0.264,0.240,0.257,0.137,0.085,�k�k��,3.5,��
2020/04/27,02:50,0.174,0.159,0.263,0.241,0.255,0.138,0.085,�k�k��,3.7,��
2020/04/27,03:00,0.175,0.159,0.263,0.240,0.255,0.137,0.084,�k�k��,4.7,��
2020/04/27,03:10,0.175,0.159,0.263,0.240,0.255,0.136,0.085,�k�k��,4.3,��
2020/04/27,03:20,0.173,0.159,0.264,0.239,0.254,0.137,0.084,�k�k��,4.6,��
2020/04/27,03:30,0.174,0.160,0.263,0.240,0.254,0.137,0.083,�k�k��,3.4,��
2020/04/27,03:40,0.173,0.159,0.264,0.239,0.255,0.136,0.083,�k,4.1,��
2020/04/27,03:50,0.174,0.158,0.263,0.238,0.255,0.136,0.083,�k�k��,4.6,��
2020/04/27,04:00,0.174,0.159,0.262,0.240,0.253,0.136,0.083,�k,5.2,��
2020/04/27,04:10,0.173,0.159,0.262,0.239,0.254,0.137,0.083,�k�k��,5.9,��
2020/04/27,04:20,0.172,0.158,0.263,0.239,0.254,0.136,0.083,�k�k��,5.5,��
2020/04/27,04:30,0.173,0.159,0.265,0.239,0.254,0.136,0.084,�k,4.6,��
2020/04/27,04:40,0.172,0.158,0.263,0.240,0.254,0.137,0.082,�k,3.8,��
2020/04/27,04:50,0.173,0.158,0.262,0.239,0.254,0.136,0.083,�k�k��,4.0,��
2020/04/27,05:00,0.172,0.158,0.264,0.239,0.254,0.137,0.082,�k�k��,3.2,��
2020/04/27,05:10,0.173,0.158,0.262,0.240,0.254,0.137,0.083,�k,3.5,��
2020/04/27,05:20,0.172,0.157,0.263,0.239,0.254,0.136,0.082,�k�k��,3.1,��
2020/04/27,05:30,0.173,0.159,0.263,0.239,0.254,0.137,0.083,�k�k��,3.0,��
2020/04/27,05:40,0.173,0.159,0.262,0.239,0.254,0.136,0.082,�k��,2.9,��
2020/04/27,05:50,0.172,0.157,0.263,0.240,0.252,0.137,0.083,�k��,1.0,��
2020/04/27,06:00,0.172,0.158,0.262,0.239,0.253,0.136,0.082,�k��,3.4,��
2020/04/27,06:10,0.173,0.159,0.263,0.238,0.254,0.135,0.082,�k�k��,2.3,��
2020/04/27,06:20,0.172,0.158,0.263,0.239,0.255,0.136,0.082,�k��,0.8,��
2020/04/27,06:30,0.173,0.158,0.263,0.239,0.253,0.136,0.082,-,CALM,��
2020/04/27,06:40,0.173,0.159,0.263,0.238,0.254,0.136,0.082,��,0.7,��
2020/04/27,06:50,0.173,0.158,0.262,0.239,0.252,0.136,0.082,���k��,1.6,��
2020/04/27,07:00,0.173,0.158,0.262,0.238,0.254,0.135,0.082,��,2.1,��
2020/04/27,07:10,0.173,0.157,0.262,0.238,0.253,0.136,0.082,��,1.9,��
2020/04/27,07:20,0.172,0.158,0.260,0.239,0.253,0.136,0.082,�k��,0.9,��
2020/04/27,07:30,0.173,0.158,0.261,0.236,0.255,0.136,0.082,��,1.7,��
2020/04/27,07:40,0.172,0.157,0.261,0.240,0.252,0.135,0.082,���k��,1.8,��
2020/04/27,07:50,0.172,0.157,0.262,0.237,0.256,0.135,0.083,���k��,2.8,��
2020/04/27,08:00,0.172,0.158,0.262,0.238,0.254,0.135,0.082,�k��,2.5,��
2020/04/27,08:10,0.172,0.157,0.262,0.237,0.255,0.135,0.082,�k��,1.8,��
2020/04/27,08:20,0.173,0.157,0.260,0.238,0.252,0.135,0.082,���k��,3.1,��
2020/04/27,08:30,0.173,0.159,0.262,0.238,0.255,0.136,0.082,�k��,3.3,��
2020/04/27,08:40,0.172,0.157,0.261,0.238,0.253,0.135,0.083,�k��,3.7,��
2020/04/27,08:50,0.172,0.158,0.264,0.239,0.254,0.136,0.083,�k��,2.6,��
2020/04/27,09:00,0.172,0.158,0.262,0.238,0.255,0.135,0.082,�k��,4.7,��
2020/04/27,09:10,0.172,0.158,0.264,0.238,0.255,0.135,0.083,�k��,4.9,��
2020/04/27,09:20,0.174,0.158,0.264,0.240,0.255,0.135,0.082,�k��,3.7,��
2020/04/27,09:30,0.172,0.157,0.263,0.239,0.255,0.136,0.082,�k��,5.2,��
2020/04/27,09:40,0.174,0.158,0.261,0.240,0.253,0.135,0.082,�k��,4.8,��
2020/04/27,09:50,0.172,0.157,0.263,0.240,0.256,0.136,0.082,�k��,3.9,��
2020/04/27,10:00,0.174,0.158,0.262,0.238,0.254,0.136,0.082,�k��,5.0,��
2020/04/27,10:10,0.172,0.157,0.265,0.239,0.255,0.137,0.082,���k��,4.2,��
2020/04/27,10:20,0.173,0.158,0.262,0.238,0.252,0.135,0.082,��,5.4,��
2020/04/27,10:30,0.171,0.157,0.264,0.240,0.257,0.136,0.082,��,3.3,��
2020/04/27,10:40,0.173,0.160,0.263,0.239,0.252,0.136,0.083,���k��,2.1,��
2020/04/27,10:50,0.173,0.158,0.265,0.240,0.254,0.136,0.083,���k��,2.3,��
2020/04/27,11:00,0.173,0.158,0.265,0.240,0.255,0.138,0.083,���k��,3.4,��
2020/04/27,11:10,0.172,0.159,0.265,0.239,0.255,0.136,0.082,���k��,3.2,��
2020/04/27,11:20,0.174,0.159,0.265,0.242,0.256,0.136,0.082,���k��,3.5,��
2020/04/27,11:30,0.172,0.159,0.264,0.240,0.253,0.136,0.083,���k��,2.7,��
2020/04/27,11:40,0.174,0.159,0.267,0.241,0.256,0.136,0.083,���k��,3.3,��
2020/04/27,11:50,0.173,0.158,0.264,0.240,0.254,0.137,0.083,���k��,3.8,��
2020/04/27,12:00,0.173,0.158,0.266,0.240,0.255,0.136,0.083,��,3.3,��
2020/04/27,12:10,0.173,0.158,0.264,0.241,0.254,0.137,0.083,���k��,4.1,��
2020/04/27,12:20,0.172,0.158,0.267,0.241,0.256,0.136,0.083,��,2.7,��
2020/04/27,12:30,0.174,0.159,0.265,0.242,0.255,0.137,0.083,�k��,3.3,��
2020/04/27,12:40,0.173,0.159,0.267,0.240,0.254,0.136,0.083,��,3.2,��
2020/04/27,12:50,0.174,0.159,0.266,0.243,0.257,0.137,0.083,��,2.7,��
2020/04/27,13:00,0.173,0.159,0.268,0.240,0.253,0.136,0.083,��,2.7,��
2020/04/27,13:10,0.174,0.159,0.266,0.242,0.257,0.136,0.083,��,3.3,��
2020/04/27,13:20,0.172,0.159,0.267,0.240,0.254,0.137,0.083,��,2.7,��
2020/04/27,13:30,0.176,0.158,0.265,0.242,0.254,0.137,0.083,��,2.5,��
2020/04/27,13:40,0.173,0.159,0.268,0.242,0.255,0.138,0.083,���쓌,2.6,��
2020/04/27,13:50,0.174,0.158,0.265,0.242,0.254,0.136,0.083,�쓌,2.3,��
2020/04/27,14:00,0.173,0.159,0.267,0.241,0.257,0.137,0.083,��쓌,1.9,��
2020/04/27,14:10,0.174,0.159,0.266,0.242,0.253,0.136,0.083,�쓌,1.4,��
2020/04/27,14:20,0.173,0.159,0.267,0.241,0.257,0.138,0.083,��쓌,1.4,��
2020/04/27,14:30,0.172,0.159,0.267,0.241,0.255,0.136,0.083,��,1.7,��
2020/04/27,14:40,0.174,0.159,0.268,0.243,0.253,0.137,0.083,��쓌,1.9,��
2020/04/27,14:50,0.173,0.158,0.266,0.241,0.257,0.138,0.082,��,1.5,��
2020/04/27,15:00,0.173,0.160,0.267,0.243,0.254,0.136,0.083,��쓌,2.2,��
2020/04/27,15:10,0.174,0.159,0.268,0.242,0.257,0.137,0.083,��,1.7,��
2020/04/27,15:20,0.174,0.160,0.268,0.244,0.256,0.137,0.083,��쓌,2.8,��
2020/04/27,15:30,0.174,0.160,0.268,0.242,0.257,0.137,0.083,��,2.9,��
2020/04/27,15:40,0.173,0.159,0.269,0.243,0.256,0.136,0.083,��,3.0,��
2020/04/27,15:50,0.174,0.159,0.268,0.244,0.254,0.137,0.084,��,3.4,��
2020/04/27,16:00,0.174,0.159,0.270,0.242,0.256,0.137,0.083,�쓌,3.3,��
2020/04/27,16:10,0.175,0.159,0.268,0.243,0.255,0.138,0.084,��쓌,1.5,��
2020/04/27,16:20,0.174,0.160,0.269,0.244,0.257,0.137,0.083,��쓌,2.7,��
2020/04/27,16:30,0.175,0.159,0.270,0.243,0.255,0.138,0.083,��쓌,3.4,��
2020/04/27,16:40,0.173,0.160,0.268,0.244,0.257,0.136,0.083,��쓌,1.8,��
2020/04/27,16:50,0.175,0.159,0.269,0.243,0.254,0.138,0.083,��쓌,2.4,��
2020/04/27,17:00,0.175,0.160,0.268,0.244,0.257,0.137,0.083,��쓌,1.4,��
2020/04/27,17:10,0.175,0.161,0.268,0.243,0.256,0.137,0.083,��,1.4,��
2020/04/27,17:20,0.174,0.160,0.268,0.242,0.257,0.137,0.084,��,0.6,��
2020/04/27,17:30,0.174,0.160,0.267,0.244,0.256,0.138,0.083,��,2.2,��
2020/04/27,17:40,0.174,0.160,0.269,0.243,0.256,0.138,0.083,��쓌,1.5,��
2020/04/27,17:50,0.174,0.160,0.268,0.243,0.256,0.138,0.083,��쓌,0.7,��
2020/04/27,18:00,0.175,0.160,0.269,0.245,0.258,0.137,0.084,��쓌,2.5,��
2020/04/27,18:10,0.175,0.160,0.269,0.243,0.256,0.137,0.083,��,1.9,��
2020/04/27,18:20,0.174,0.160,0.268,0.243,0.257,0.139,0.083,�쓌,0.8,��
2020/04/27,18:30,0.174,0.159,0.268,0.244,0.256,0.139,0.083,-,CALM,��
2020/04/27,18:40,0.174,0.160,0.268,0.243,0.256,0.139,0.083,��쐼,0.6,��
2020/04/27,18:50,0.175,0.160,0.268,0.244,0.258,0.138,0.083,��,1.2,��
2020/04/27,19:00,0.175,0.160,0.268,0.243,0.256,0.138,0.084,-,CALM,��
2020/04/27,19:10,0.174,0.159,0.270,0.243,0.259,0.138,0.083,-,CALM,��
2020/04/27,19:20,0.174,0.159,0.268,0.243,0.255,0.138,0.084,��,1.0,��
2020/04/27,19:30,0.174,0.160,0.267,0.243,0.255,0.138,0.084,-,CALM,��
2020/04/27,19:40,0.175,0.159,0.269,0.244,0.257,0.139,0.083,��,0.7,��
2020/04/27,19:50,0.175,0.159,0.268,0.243,0.256,0.138,0.083,��,1.0,��
2020/04/27,20:00,0.173,0.160,0.267,0.244,0.255,0.138,0.083,��,1.5,��
2020/04/27,20:10,0.174,0.160,0.269,0.244,0.257,0.137,0.083,�쐼,1.1,��
2020/04/27,20:20,0.175,0.159,0.270,0.242,0.255,0.138,0.083,�쐼,0.8,��
2020/04/27,20:30,0.174,0.160,0.268,0.243,0.256,0.138,0.083,�쐼,1.4,��
2020/04/27,20:40,0.174,0.161,0.269,0.244,0.257,0.139,0.084,�쐼,1.5,��
2020/04/27,20:50,0.175,0.160,0.269,0.242,0.256,0.138,0.083,�쐼,2.0,��
2020/04/27,21:00,0.174,0.160,0.269,0.242,0.257,0.138,0.083,�쐼,1.9,��
2020/04/27,21:10,0.174,0.160,0.269,0.243,0.256,0.137,0.083,�쐼,1.8,��
2020/04/27,21:20,0.175,0.161,0.269,0.243,0.255,0.138,0.084,�쐼,2.1,��
2020/04/27,21:30,0.174,0.160,0.268,0.243,0.255,0.138,0.084,���쐼,2.4,��
2020/04/27,21:40,0.176,0.159,0.268,0.244,0.257,0.138,0.084,�쐼,2.0,��
2020/04/27,21:50,0.175,0.160,0.269,0.243,0.256,0.138,0.084,�쐼,2.4,��
2020/04/27,22:00,0.175,0.160,0.268,0.243,0.256,0.138,0.083,�쐼,1.2,��
2020/04/27,22:10,0.175,0.159,0.268,0.243,0.256,0.139,0.083,��,1.4,��
2020/04/27,22:20,0.176,0.160,0.268,0.243,0.256,0.138,0.084,���k��,1.7,��
2020/04/27,22:30,0.174,0.159,0.269,0.243,0.257,0.138,0.084,���k��,2.0,��
2020/04/27,22:40,0.175,0.159,0.268,0.243,0.257,0.139,0.084,�k��,2.6,��
2020/04/27,22:50,0.175,0.161,0.268,0.243,0.256,0.137,0.084,�k�k��,2.1,��
2020/04/27,23:00,0.174,0.159,0.268,0.243,0.256,0.138,0.083,�k�k��,3.1,��
2020/04/27,23:10,0.175,0.160,0.269,0.242,0.256,0.138,0.084,�k�k��,2.7,��
2020/04/27,23:20,0.174,0.160,0.268,0.244,0.256,0.138,0.084,�k�k��,2.1,��
2020/04/27,23:30,0.174,0.159,0.269,0.243,0.256,0.138,0.084,�k�k��,2.5,��
2020/04/27,23:40,0.175,0.159,0.269,0.243,0.255,0.137,0.084,�k,2.1,��
2020/04/27,23:50,0.175,0.160,0.269,0.243,0.257,0.138,0.083,�k�k��,1.6,��
